Location: Unspecified
(0.0000°N, 0.0000°E)
Time: 19:26:09
(UTC+00:00)

Courier 1B Rocket - All Passes

Search period start: 26 April 2017 00:00
Search period end: 06 May 2017 00:00
Orbit: 921 x 1202 km, 28.3° (Epoch: 25 April)

Date Brightness Start Highest point End Pass type
(mag) Time Alt. Az. Time Alt. Az. Time Alt. Az.
26 Apr - 07:08:52 10° SSW 07:13:34 20° SSE 07:18:07 10° ESE daylight
26 Apr - 09:00:54 10° SW 09:07:15 75° SSE 09:13:29 10° ENE daylight
26 Apr - 10:55:26 10° W 11:00:42 28° NNW 11:06:01 10° NNE daylight
26 Apr - 18:36:51 10° NNW 18:42:08 21° NNE 18:47:34 10° ENE visible
26 Apr - 20:28:41 10° NW 20:36:14 65° NNE 20:44:01 10° ESE visible
26 Apr - 22:22:55 10° W 22:30:11 42° SSW 22:37:28 10° SE visible
27 Apr - 00:20:55 10° SW 00:24:45 14° SSW 00:28:32 10° S night (unlit)
27 Apr - 06:08:49 10° S 06:12:14 14° SSE 06:15:32 10° SE daylight
27 Apr - 08:00:02 10° SW 08:06:16 48° SSE 08:12:15 10° ENE daylight
27 Apr - 09:53:43 10° W 09:59:40 43° NNW 10:05:33 10° NE daylight
27 Apr - 11:51:17 10° NW 11:53:36 12° NNW 11:55:57 10° N daylight
27 Apr - 17:37:07 10° N 17:40:36 14° NNE 17:44:11 10° NE daylight
27 Apr - 19:27:53 10° NW 19:34:55 44° NNE 19:42:15 10° E visible
27 Apr - 21:21:14 10° WNW 21:28:49 61° SSW 21:36:33 10° SE visible
27 Apr - 23:17:37 10° WSW 23:23:07 20° SSW 23:28:33 10° SSE night (unlit)
28 Apr - 05:10:25 10° SSE 05:10:42 10° SSE 05:10:58 10° SSE visible
28 Apr - 06:59:20 10° SW 07:05:10 32° SSE 07:10:44 10° E daylight
28 Apr - 08:52:18 10° WSW 08:58:41 69° NNW 09:04:53 10° NE daylight
28 Apr - 10:48:11 10° WNW 10:52:18 18° NNW 10:56:27 10° NNE daylight
28 Apr - 18:27:24 10° NNW 18:33:35 30° NNE 18:40:06 10° E visible
28 Apr - 20:19:55 10° WNW 20:27:29 87° SSW 20:35:23 10° ESE visible
28 Apr - 22:15:04 10° W 22:21:34 29° SSW 22:28:08 10° SSE visible
29 Apr - 05:58:48 10° SSW 06:03:56 22° SSE 06:08:50 10° ESE daylight
29 Apr - 07:51:07 10° SW 07:57:43 78° SSE 08:03:59 10° ENE daylight
29 Apr - 09:45:53 10° W 09:51:09 27° NNW 09:56:22 10° NNE daylight
29 Apr - 17:27:15 10° NNW 17:32:14 20° NNE 17:37:25 10° ENE daylight
29 Apr - 19:18:55 10° NW 19:26:12 65° NNE 19:33:54 10° ESE visible
29 Apr - 21:13:02 10° W 21:20:08 41° SSW 21:27:24 10° SE visible
29 Apr - 23:10:56 10° SW 23:14:47 14° SSW 23:18:38 10° S night (unlit)
30 Apr - 04:58:31 10° SSW 05:02:32 16° SSE 05:06:25 10° ESE visible
30 Apr - 06:50:07 10° SW 06:56:40 50° SSE 07:02:50 10° ENE daylight
30 Apr - 08:44:02 10° W 08:50:07 42° NNW 08:56:00 10° NE daylight
30 Apr - 10:42:01 10° NW 10:44:01 11° NNW 10:46:02 10° N daylight
30 Apr - 16:27:43 10° N 16:30:47 13° NNE 16:33:56 10° NE daylight
30 Apr - 18:18:13 10° NW 18:24:57 44° NNE 18:32:07 10° E visible
30 Apr - 20:11:27 10° WNW 20:18:46 59° SSW 20:26:26 10° SE visible
30 Apr - 22:07:44 10° WSW 22:13:06 20° SSW 22:18:31 10° SSE visible
01 May - 03:58:49 10° S 04:00:57 11° SSE 04:03:04 10° SE visible
01 May - 05:49:17 10° SW 05:55:32 34° SSE 06:01:22 10° E daylight
01 May - 07:42:28 10° WSW 07:49:07 67° NNW 07:55:24 10° NE daylight
01 May - 09:38:36 10° WNW 09:42:45 18° NNW 09:46:49 10° NNE daylight
01 May - 17:17:49 10° NNW 17:23:42 29° NNE 17:29:57 10° E daylight
01 May - 19:10:12 10° WNW 19:17:28 85° SSW 19:25:14 10° ESE visible
01 May - 21:05:17 10° W 21:11:33 28° SSW 21:18:01 10° SSE visible
02 May - 04:48:37 10° SSW 04:54:14 24° SSE 04:59:32 10° ESE visible
02 May - 06:41:10 10° WSW 06:48:05 80° SSE 06:54:33 10° ENE daylight
02 May - 08:36:10 10° W 08:41:36 27° NNW 08:46:50 10° NNE daylight
02 May - 16:17:46 10° NNW 16:22:25 19° NNE 16:27:18 10° ENE daylight
02 May - 18:09:17 10° NW 18:16:15 66° NNE 18:23:45 10° ESE visible
02 May - 20:03:20 10° W 20:10:06 39° SSW 20:17:15 10° SE visible
02 May - 22:01:09 10° SW 22:04:49 14° SSW 22:08:30 10° S visible
03 May - 03:48:11 10° SSW 03:52:46 17° SSE 03:57:11 10° ESE visible
03 May - 05:40:03 10° SW 05:47:00 53° SSE 05:53:26 10° ENE daylight
03 May - 07:34:10 10° W 07:40:31 42° NNW 07:46:31 10° NE daylight
03 May - 09:32:27 10° NW 09:34:26 11° NNW 09:36:25 10° N daylight
03 May - 15:18:26 10° N 15:21:03 12° NNE 15:23:44 10° NE daylight
03 May - 17:08:40 10° NW 17:15:05 43° NNE 17:21:59 10° E daylight
03 May - 19:01:48 10° WNW 19:08:47 57° SSW 19:16:16 10° SE visible
03 May - 20:58:04 10° WSW 21:03:08 19° SSW 21:08:20 10° SSE visible
04 May - 02:48:07 10° S 02:51:08 13° SSE 02:54:05 10° SE visible
04 May - 04:39:07 10° SW 04:45:46 36° SSE 04:51:59 10° E visible
04 May - 06:32:30 10° WSW 06:39:28 66° NNW 06:45:57 10° NE daylight
04 May - 08:28:50 10° WNW 08:33:08 18° NNW 08:37:19 10° NNE daylight
04 May - 16:08:19 10° NNW 16:13:55 29° NNE 16:19:51 10° E daylight
04 May - 18:00:38 10° WNW 18:07:33 83° SSW 18:15:03 10° ESE daylight
04 May - 19:55:39 10° W 20:01:35 26° SSW 20:07:48 10° SSE visible
05 May - 03:38:22 10° SSW 03:44:25 26° SSE 03:50:08 10° E visible
05 May - 05:31:05 10° WSW 05:38:23 83° SSE 05:45:06 10° ENE visible
05 May - 07:26:16 10° W 07:31:58 28° NNW 07:37:22 10° NNE daylight
05 May - 15:08:20 10° NNW 15:12:42 19° NNE 15:17:15 10° ENE daylight
05 May - 16:59:46 10° NW 17:06:25 67° NNE 17:13:37 10° ESE daylight
05 May - 18:53:47 10° W 19:00:11 37° SSW 19:07:02 10° SE visible
05 May - 20:51:39 10° SW 20:54:52 13° SSW 20:58:09 10° S visible
